Regional Weather Roundup
Issued by NWS Bismarck, ND

Home | Current Version | Previous Version | Text Only | Print | Product List | Glossary On
Versions: 1 2 3 4 5 6 7 8 9 10 11 12 13 14 15 16 17 18 19 20 21 22 23 24 25 26 27 28 29 30 31 32 33 34 35 36 37 38 39 40 41 42 43 44 45 46 47 48 49 50
000
ASUS43 KBIS 211910
RWRBIS

NWR BROADCAST TEXT
NATIONAL WEATHER SERVICE BISMARCK ND
200 PM CDT FRI JUL 21 2017

NOTE: "FAIR" INDICATES FEW OR NO CLOUDS BELOW 12,000 FEET WITH NO
SIGNIFICANT WEATHER AND/OR OBSTRUCTIONS TO VISIBILITY.


CITY           SKY/WX    TMP DP  RH WIND       PRES   REMARKS
WILLISTON      SUNNY     86  60  41 VRB6      29.84S
MINOT          PTSUNNY   80  64  58 E12       29.77F
MINOT AFB      CLOUDY    77  64  64 SE13      29.75F
BISMARCK       SUNNY     87  68  52 S7        29.81F HX  90
DICKINSON      SUNNY     86  63  45 E3        29.84F
GARRISON         N/A     82  67  60 SE13      29.80F
HETTINGER ARPT SUNNY     87  61  41 W7        29.88R
JAMESTOWN      SUNNY     91  64  40 S7        29.79F HX  92
HAZEN            N/A     84  64  51 CALM      29.82S
LINTON           N/A    N/A N/A N/A CALM      29.83F
MANDAN         FAIR      84  68  58 VRB3G12   29.82F
STANLEY        FAIR      81  66  61 S9        29.85F
TIOGA          FAIR      84  57  39 NW12      29.86S
WATFORD CITY   FAIR      88  55  33 CALM      29.82F
$$

CITY           SKY/WX    TMP DP  RH WIND       PRES   REMARKS
GRAND FORKS    CLOUDY    88  73  61 NW5       29.76F HX  95
GRAND FORKS AF PTSUNNY   86  70  58 CALM      29.76F HX  90
DEVILS LAKE    LGT RAIN  79  69  71 NW9       29.83R
FARGO          MOSUNNY   91  70  49 N6        29.76F HX  96
CAVALIER       FAIR      79  72  78 CALM      29.78R
GRAFTON        FAIR      84  72  65 VRB7      29.77F
GWINNER          N/A     88  75  66 CALM      29.79S HX  97
LANGDON        CLOUDY    77  75  94 E7        29.83R
ROLLA            N/A     72  72 100 MISG      29.84F
$$

CITY           SKY/WX    TMP DP  RH WIND       PRES   REMARKS
ABERDEEN       MOSUNNY   87  73  62 MISG      29.80F HX  94
MOBRIDGE       CLOUDY    89  74  60 NW3       29.78F HX  98
BUFFALO          N/A     88  58  36 NW14      29.84S
RAPID CITY     SUNNY     92  56  29 N21G31    29.91S HAZE    HX  90
GLASGOW        SUNNY     87  33  14 MISG      29.88S
SIDNEY         SUNNY     91  55  29 NW12      29.83S
WOLF POINT     SUNNY     91  38  15 W22G29    29.85S
GLENDIVE       SUNNY     90  38  16 NW20G25   29.89S
MILES CITY     SUNNY     92  25   9 NW17G26   29.92F
BAKER          SUNNY     90  51  26 W18G28    29.92R
$$

CITY           SKY/WX    TMP DP  RH WIND       PRES   REMARKS
BILLINGS       MOSUNNY   86  36  16 S8        30.01F
GREAT FALLS    SUNNY     82  17   9 W20G29    30.01S
REGINA         MOSUNNY   81  55  41 SW10      29.80F
ESTEVAN        MOSUNNY   77  66  69 SW12      29.82S
$$





USA.gov is the U.S. government's official web portal to all federal, state and local government web resources and services.